Dewpoint
10 11 12 12 13 13 12 11 10 10 9 10 12 13 11 3 2 2 1 2 2 2 4 5 6 6 6 6 5 4 4 7 6 7 6 7 6 7 7 7 8 7 1
9 10 9 10 12 13 13 11 10 9 10 10 11 11 12 12 10 2 2 2 2 2 3 5 6 6 6 6 6 6 6 5 5 5 6 6 6 6 7 7 7 8 6
-8 -7 6 9 10 11 12 13 12 12 12 12 11 12 12 12 12 12 7 1 2 3 5 5 6 7 7 7 7 7 6 5 5 5 5 5 7 7 7 8 8 8 8
-3 -5 -7 -6 7 10 11 13 12 12 13 13 11 11 12 12 11 11 11 12 8 1 2 6 7 7 9 8 8 7 6 6 6 6 6 6 6 6 7 7 8 8 8
-0 -0 -3 -4 -6 2 8 10 11 12 12 12 12 12 12 12 12 12 11 11 11 8 2 5 8 9 10 9 8 7 7 7 6 6 6 6 6 6 6 7 8 8 8
-0 0 -0 -2 -4 -5 -1 6 10 10 12 12 12 12 12 11 11 12 11 11 11 8 4 5 8 10 11 10 10 10 10 10 10 8 7 7 7 7 6 7 7 7 7
0 1 1 0 -2 -3 -4 -2 5 10 12 12 12 12 11 11 11 11 10 11 11 11 10 9 10 9 7 9 10 10 10 10 10 9 8 7 8 7 7 7 7 6 7
1 2 2 1 -1 -1 -1 -3 -2 4 10 11 12 11 11 12 11 9 9 9 10 11 11 11 11 10 7 5 2 9 9 9 9 10 9 9 9 9 9 8 7 7 7
3 3 2 1 1 1 0 -1 -3 -1 4 9 11 11 11 11 10 10 9 9 9 10 10 11 9 8 10 10 8 6 6 7 8 9 9 9 9 8 9 9 8 8 8
2 1 1 2 2 1 2 4 4 3 0 2 9 10 10 11 11 11 9 8 9 9 9 10 10 10 9 7 6 7 7 8 8 8 8 8 8 8 8 9 8 9 9
2 1 1 1 1 1 2 3 4 6 5 3 4 9 9 9 10 10 11 10 9 7 7 9 9 8 7 7 8 8 9 9 9 9 9 9 9 8 10 10 10 9 9
-1 1 2 2 0 1 3 4 4 3 3 5 7 8 7 8 9 9 10 11 10 10 9 9 9 8 7 7 8 8 8 9 9 10 10 10 10 10 10 9 9 9 8
3 1 1 1 2 2 2 2 1 1 2 4 6 8 8 7 8 9 10 10 10 10 9 8 7 8 7 6 7 7 7 9 9 9 9 9 9 9 9 9 9 9 9
5 4 4 3 2 3 3 3 2 3 4 5 5 7 8 6 6 9 9 9 10 9 9 7 6 5 7 6 7 6 6 9 9 9 9 9 9 9 8 8 9 9 9
4 5 6 6 5 5 4 3 5 7 7 7 7 7 6 6 6 8 9 10 9 8 8 7 8 8 8 7 7 7 7 8 9 9 9 9 8 8 8 8 8 8 8
4 4 4 6 6 4 4 4 6 6 6 6 7 7 8 9 8 7 7 9 9 9 9 8 8 8 7 7 7 7 8 7 7 7 8 8 7 7 8 8 7 2 -2
5 4 5 5 5 3 4 6 6 6 5 5 6 6 7 8 8 8 8 8 8 7 8 8 7 8 7 7 7 6 6 6 6 6 6 7 7 6 1 -10 -13 -23 -28
4 4 4 3 4 3 3 3 3 4 4 4 4 5 5 6 7 7 7 7 6 7 7 7 7 6 6 5 5 5 5 5 1 0 2 -2 -13 -21 -20 -21 -26 -27 -27
4 5 5 5 5 5 5 4 3 3 4 4 5 5 5 5 5 5 5 5 5 5 6 5 5 4 2 0 -8 -15 -23 -25 -26 -26 -25 -26 -26 -27 -26 -25 -24 -22 -23
4 5 5 5 5 5 4 2 1 3 5 4 4 4 5 5 4 4 5 5 3 0 -3 -5 -3 -3 -5 -14 -20 -21 -24 -24 -24 -23 -23 -23 -21 -20 -20 -21 -20 -19 -18
2 4 4 4 4 2 -2 -5 1 1 -0 2 4 4 2 1 1 -3 -6 -11 -17 -21 -23 -22 -19 -20 -21 -20 -21 -22 -24 -25 -24 -22 -22 -21 -21 -21 -20 -19 -17 -14 -12
-15 -13 -12 -12 -14 -17 -17 -6 -6 -11 -12 -12 -12 -13 -13 -16 -17 -19 -21 -23 -24 -25 -23 -24 -21 -22 -21 -21 -21 -22 -23 -24 -21 -20 -22 -24 -22 -22 -20 -17 -15 -15 -12
-17 -16 -15 -16 -17 -18 -19 -19 -18 -17 -16 -16 -16 -15 -16 -18 -19 -21 -23 -23 -23 -22 -22 -21 -21 -20 -20 -20 -20 -20 -20 -21 -21 -19 -19 -24 -20 -20 -17 -16 -14 -12 -8
-19 -19 -19 -18 -18 -18 -19 -19 -20 -21 -19 -18 -18 -18 -18 -19 -20 -21 -21 -21 -21 -21 -20 -19 -20 -20 -19 -19 -19 -19 -18 -19 -20 -18 -15 -17 -17 -17 -17 -15 -14 -10 -7
-18 -18 -19 -19 -18 -19 -20 -21 -21 -20 -18 -18 -18 -18 -18 -19 -20 -20 -19 -19 -18 -18 -18 -19 -19 -19 -19 -18 -18 -18 -17 -17 -18 -18 -13 -10 -14 -14 -16 -15 -10 -7 -8
-18 -18 -18 -19 -19 -19 -20 -21 -23 -21 -21 -19 -19 -19 -20 -20 -21 -20 -19 -18 -18 -17 -17 -17 -17 -17 -17 -17 -17 -16 -15 -14 -13 -14 -12 -11 -10 -8 -7 -13 -12 -11 -9
Wind_Speed
31 31 32 30 29 28 28 29 29 29 28 29 29 30 26 26 26 26 24 22 22 21 20 18 17 16 15 14 12 12 11 12 13 13 13 14 14 13 13 13 13 14 14
35 36 36 35 34 31 30 30 31 32 32 31 31 31 31 28 27 28 28 26 25 24 23 22 20 19 19 17 16 15 15 14 15 15 16 15 16 16 16 16 15 15 15
32 35 36 39 36 36 35 33 31 31 32 32 33 32 31 32 31 30 29 29 28 27 25 25 23 21 20 19 20 20 20 18 17 17 17 18 19 18 19 18 18 17 17
33 34 36 38 39 36 35 35 34 32 34 33 35 34 34 33 32 31 32 30 30 31 29 27 25 23 22 22 23 23 23 22 21 20 19 19 20 21 21 21 21 20 20
32 33 35 36 35 38 37 36 34 33 34 34 37 36 37 37 34 31 32 32 31 31 31 29 27 24 23 22 22 23 24 25 25 25 24 23 23 22 22 23 23 23 23
34 33 33 34 35 34 36 34 33 34 33 32 32 33 33 32 34 33 31 30 30 29 29 30 29 28 22 22 23 24 26 27 28 28 27 27 26 26 25 25 26 26 25
26 28 29 29 32 33 32 34 33 33 32 33 30 30 32 32 32 30 29 30 31 32 32 31 29 22 20 22 25 28 29 30 30 29 30 31 30 29 27 27 27 29 28
17 20 23 24 26 28 30 29 31 32 31 32 29 26 20 19 28 28 28 30 32 33 32 31 26 25 25 25 24 31 32 32 32 32 32 32 31 31 30 29 29 29 28
12 16 19 21 21 22 25 26 27 29 33 30 26 22 8 11 16 20 20 24 28 31 28 28 24 25 27 27 28 30 30 29 29 28 29 29 32 32 30 30 29 28 28
12 14 16 19 20 19 21 21 21 26 28 31 28 28 27 27 16 14 18 15 17 21 23 23 27 23 21 24 26 29 30 31 31 31 31 30 30 30 28 28 29 28 26
13 12 13 15 16 19 20 20 20 18 23 27 29 28 25 25 25 26 20 18 17 15 14 14 11 15 19 20 21 22 26 25 25 25 23 24 24 25 24 23 23 24 25
11 12 14 14 15 16 18 17 19 22 21 24 26 28 29 25 25 26 28 24 22 17 17 17 13 14 17 19 20 22 23 25 24 21 18 20 21 25 25 26 27 28 30
10 9 10 12 12 13 15 17 20 22 22 21 23 25 24 26 24 22 22 23 22 20 24 24 20 19 23 25 26 26 26 24 24 23 23 23 25 26 25 27 29 31 33
12 10 9 9 10 12 15 16 16 18 18 18 18 21 22 22 23 22 23 25 15 12 14 18 16 25 29 28 30 27 24 27 29 29 29 31 29 30 30 30 29 28 29
13 12 11 9 9 11 12 12 13 11 12 13 14 16 18 16 17 14 14 14 16 9 16 21 15 18 21 22 26 24 23 27 27 30 27 29 31 31 29 31 26 27 30
11 12 12 10 9 9 13 11 11 9 9 9 11 11 12 14 14 17 16 11 11 12 12 8 12 18 25 22 23 28 23 22 30 29 29 29 27 25 25 27 28 29 31
8 6 8 7 5 7 9 7 6 6 7 8 9 9 10 12 12 12 14 14 13 14 18 15 16 22 18 20 24 23 21 19 21 21 21 25 24 25 27 28 30 31 33
7 4 6 4 4 7 7 8 10 11 12 14 12 13 13 14 14 15 15 15 15 16 16 17 18 17 19 21 20 18 19 20 21 21 23 20 22 26 26 28 30 29 31
6 2 5 6 7 8 7 9 8 9 10 9 9 8 9 10 12 10 10 11 12 12 13 13 12 11 11 11 12 12 14 16 17 18 18 18 20 22 24 25 27 27 28
6 4 5 5 6 5 5 6 8 7 6 6 6 7 6 5 6 6 6 6 5 5 5 6 8 10 9 9 11 13 12 13 14 16 15 16 18 19 22 24 25 27 26
6 5 5 6 7 7 8 8 6 5 3 3 2 2 1 2 4 4 4 3 2 2 3 3 5 6 7 8 10 13 15 16 15 13 12 13 18 19 20 21 21 21 21
6 6 6 6 5 4 4 4 3 3 2 2 2 1 1 2 2 1 1 1 1 2 2 3 3 4 6 8 11 13 15 17 17 16 21 21 19 19 19 18 19 22 21
7 7 6 6 5 4 4 3 3 2 2 2 2 2 2 2 1 1 1 2 3 3 3 4 4 5 7 10 12 14 15 16 19 22 23 25 22 20 18 18 18 18 16
9 9 8 6 6 5 4 4 3 3 3 3 2 2 2 3 4 4 5 4 4 4 4 5 6 8 9 11 13 15 17 19 20 19 21 21 21 23 21 19 16 12 9
12 10 10 9 8 7 7 6 5 4 3 3 3 3 2 2 2 3 3 4 4 6 7 8 9 11 12 14 16 16 17 20 22 23 19 17 24 28 25 16 10 7 19
14 14 12 11 10 9 9 8 6 6 5 5 4 5 4 4 3 3 5 6 7 7 8 9 9 10 11 12 15 16 17 18 19 19 14 23 23 20 17 10 14 22 24
Wind_Direction
263 264 266 269 267 267 263 263 263 263 261 259 257 251 250 252 251 251 252 250 249 248 249 250 251 253 258 262 268 277 280 276 276 275 275 271 272 276 280 284 285 287 281
261 260 260 264 265 267 264 260 261 264 264 263 260 259 254 251 253 251 251 250 250 250 250 249 252 253 257 263 269 272 274 273 277 276 272 271 269 269 274 278 280 283 282
263 262 259 257 260 261 263 261 257 259 262 263 260 259 255 251 251 252 251 251 250 249 251 248 249 254 258 261 267 270 274 273 270 273 276 271 271 270 272 276 277 276 277
264 263 263 260 258 261 264 265 263 260 261 262 260 259 257 256 255 256 254 252 252 251 248 247 249 253 260 262 266 270 271 273 274 274 275 275 273 271 271 271 272 273 271
269 269 264 264 262 258 260 263 267 264 262 262 262 261 265 265 258 258 258 256 253 252 248 246 247 249 256 260 264 268 271 272 274 275 274 274 273 272 272 270 268 268 270
268 267 267 263 261 263 261 261 262 267 264 262 264 263 266 267 261 259 255 254 256 250 247 242 244 247 251 261 269 269 270 272 273 271 270 272 273 271 271 272 270 269 269
266 263 266 266 260 257 263 259 261 262 266 264 262 269 268 266 261 258 262 260 254 252 248 247 248 249 239 261 268 271 271 271 272 266 266 270 273 271 270 271 270 269 269
263 257 262 265 260 259 260 264 257 258 264 259 260 265 265 271 270 266 259 259 258 254 255 245 244 252 254 250 264 271 270 270 270 267 267 267 271 273 273 268 267 268 267
281 269 268 262 262 261 267 266 258 254 256 262 259 253 253 247 275 285 273 264 256 251 253 238 239 244 261 264 267 269 269 269 269 269 268 267 269 275 274 270 266 267 265
297 285 278 266 262 268 267 268 267 260 254 253 261 255 255 261 263 280 271 269 257 248 246 242 244 256 261 271 270 272 271 268 267 269 269 270 271 273 276 271 264 262 259
299 293 285 276 273 271 269 266 268 270 256 252 250 251 257 265 261 257 266 260 259 256 244 231 237 266 278 283 278 277 268 274 272 270 270 266 264 267 265 259 252 254 258
315 291 279 285 278 279 275 274 270 265 268 253 249 243 250 256 259 253 251 250 248 239 233 246 263 278 284 289 291 294 277 273 276 273 270 268 264 262 260 263 263 263 261
312 308 295 282 282 279 277 278 279 274 266 266 253 247 245 253 263 262 258 252 257 248 243 257 266 283 289 292 292 292 290 275 267 263 259 257 263 266 266 266 265 264 269
307 304 297 291 277 276 284 285 280 274 267 263 263 256 254 254 262 262 261 258 233 223 246 257 251 258 264 263 271 285 285 269 264 262 259 264 266 270 271 268 265 264 268
300 289 285 280 282 286 291 285 279 276 271 268 261 257 256 252 247 262 266 249 258 241 265 261 252 259 258 267 279 282 282 262 260 254 257 267 271 265 261 259 260 273 275
321 311 294 274 283 297 304 282 273 278 292 277 267 256 242 233 239 249 252 239 243 245 231 229 249 262 254 270 273 279 255 255 274 261 261 262 264 268 275 278 281 282 281
313 328 334 293 293 321 333 312 302 301 285 284 282 280 272 256 249 254 253 253 255 263 255 261 268 250 248 259 266 258 264 273 274 274 275 272 278 281 285 293 287 286 284
312 309 323 314 320 321 314 307 297 312 304 298 294 285 276 273 274 276 275 270 269 265 260 267 250 248 256 252 252 261 273 284 288 292 291 294 297 294 291 290 292 289 288
-0 314 310 311 303 304 300 295 286 284 286 282 285 282 273 275 276 272 275 273 273 269 266 251 234 237 251 274 295 298 295 298 302 302 303 295 290 288 286 285 286 287 287
1 336 314 314 315 318 332 331 320 306 297 279 273 285 267 242 263 262 260 251 253 266 273 276 271 273 276 281 287 293 298 300 302 298 294 291 285 289 293 293 293 294 295
328 323 319 318 320 323 321 324 334 339 353 321 304 287 313 335 298 289 286 279 274 293 288 287 305 310 310 313 320 320 320 319 315 300 298 293 297 294 292 290 291 289 287
298 301 302 304 309 314 318 326 332 342 359 18 359 57 54 16 26 31 18 -0 5 338 332 332 318 326 314 316 316 318 322 326 330 318 313 310 314 304 301 296 293 289 290
278 275 276 281 290 297 308 318 309 307 306 310 314 337 351 347 2 28 23 7 7 4 336 339 328 326 328 324 324 326 327 324 320 323 318 317 322 313 309 304 299 294 292
269 269 268 265 271 278 278 273 273 270 260 258 263 277 313 348 359 354 350 352 350 350 349 346 340 335 333 326 324 328 326 325 325 323 320 315 319 318 317 313 297 288 304
266 266 265 260 257 259 261 255 251 250 255 264 272 279 290 299 314 319 319 327 331 333 337 338 335 333 333 330 329 326 323 324 325 327 328 322 324 318 320 318 296 272 317
260 259 258 257 256 256 260 263 260 246 245 248 255 261 274 286 293 301 312 318 319 319 318 320 319 319 319 319 321 320 321 321 321 326 328 321 321 335 328 323 304 312 321
Height
1530 1530 1530 1531 1531 1532 1532 1531 1532 1532 1533 1533 1533 1533 1534 1534 1535 1536 1536 1538 1538 1539 1539 1540 1540 1541 1541 1541 1541 1541 1541 1541 1541 1540 1540 1540 1540 1539 1539 1539 1538 1538 1537
1523 1523 1523 1523 1524 1525 1526 1525 1525 1525 1526 1527 1527 1527 1528 1529 1529 1530 1530 1532 1533 1533 1534 1535 1536 1536 1536 1537 1537 1537 1537 1537 1537 1537 1536 1536 1536 1535 1535 1535 1534 1534 1534
1514 1514 1514 1515 1516 1517 1518 1518 1518 1519 1518 1519 1519 1521 1521 1521 1522 1523 1524 1525 1526 1527 1528 1529 1530 1531 1532 1532 1532 1533 1533 1532 1532 1532 1532 1532 1532 1531 1531 1531 1530 1529 1529
1507 1506 1505 1506 1508 1509 1510 1509 1511 1512 1512 1512 1512 1513 1515 1515 1516 1517 1517 1518 1519 1520 1521 1523 1524 1525 1526 1527 1527 1528 1527 1527 1527 1527 1527 1527 1527 1526 1526 1525 1525 1524 1523
1499 1498 1498 1498 1500 1500 1501 1502 1502 1503 1504 1504 1505 1506 1507 1508 1509 1509 1510 1511 1511 1513 1514 1516 1518 1519 1520 1520 1521 1521 1522 1522 1521 1521 1521 1521 1521 1521 1520 1520 1519 1519 1518
1489 1490 1489 1490 1492 1492 1493 1494 1495 1496 1496 1497 1497 1497 1498 1498 1500 1501 1502 1503 1504 1506 1507 1509 1511 1512 1513 1515 1515 1515 1516 1516 1515 1515 1514 1514 1514 1514 1514 1514 1513 1513 1512
1479 1481 1481 1482 1483 1484 1485 1487 1489 1490 1490 1491 1491 1490 1490 1490 1490 1492 1494 1496 1497 1498 1501 1502 1503 1504 1504 1508 1507 1509 1509 1509 1508 1507 1507 1506 1506 1506 1507 1507 1507 1506 1506
1472 1473 1475 1475 1476 1477 1478 1480 1481 1482 1484 1486 1485 1486 1485 1484 1483 1485 1486 1487 1488 1490 1492 1495 1497 1498 1501 1500 1501 1502 1503 1502 1501 1500 1500 1499 1498 1499 1499 1499 1499 1499 1498
1470 1470 1470 1470 1471 1472 1472 1473 1473 1474 1476 1479 1480 1481 1479 1479 1479 1479 1479 1479 1481 1482 1485 1488 1491 1494 1495 1494 1495 1495 1494 1494 1494 1493 1492 1492 1491 1491 1491 1491 1491 1492 1492
1468 1467 1466 1466 1467 1467 1467 1467 1468 1468 1468 1470 1473 1473 1475 1476 1477 1476 1476 1475 1475 1476 1479 1482 1486 1488 1490 1489 1489 1488 1487 1486 1486 1486 1485 1484 1484 1483 1483 1483 1484 1485 1485
1465 1464 1463 1463 1463 1462 1462 1462 1463 1463 1463 1463 1464 1466 1468 1469 1471 1472 1471 1472 1472 1474 1475 1477 1482 1485 1486 1485 1483 1481 1481 1480 1479 1478 1477 1478 1477 1476 1476 1477 1478 1479 1479
1462 1460 1459 1459 1458 1458 1458 1458 1458 1457 1457 1456 1457 1459 1461 1461 1462 1464 1466 1467 1468 1469 1470 1470 1476 1480 1480 1478 1478 1476 1475 1474 1473 1472 1471 1472 1471 1470 1470 1471 1471 1471 1472
1459 1458 1456 1455 1454 1454 1454 1454 1453 1452 1451 1450 1451 1452 1455 1455 1457 1458 1460 1461 1461 1463 1464 1466 1467 1470 1473 1474 1472 1469 1470 1469 1467 1466 1466 1465 1464 1464 1464 1464 1463 1463 1464
1455 1455 1454 1452 1451 1450 1450 1449 1448 1447 1446 1446 1446 1447 1449 1450 1452 1454 1455 1456 1454 1457 1458 1461 1460 1465 1467 1465 1468 1465 1462 1464 1461 1460 1460 1458 1458 1458 1457 1456 1455 1456 1455
1452 1451 1450 1449 1448 1448 1446 1445 1445 1444 1443 1442 1442 1443 1444 1445 1447 1449 1449 1450 1451 1449 1454 1456 1456 1459 1460 1459 1457 1458 1456 1456 1453 1453 1452 1451 1450 1450 1449 1448 1447 1447 1448
1450 1447 1445 1445 1445 1445 1443 1441 1440 1440 1439 1439 1439 1439 1440 1440 1442 1444 1445 1446 1447 1447 1449 1446 1451 1452 1455 1453 1451 1454 1452 1449 1450 1449 1447 1444 1444 1442 1441 1441 1440 1440 1439
1448 1446 1445 1444 1443 1443 1441 1439 1439 1438 1438 1437 1437 1437 1438 1438 1439 1440 1441 1442 1443 1445 1447 1447 1448 1447 1447 1446 1447 1448 1446 1443 1443 1443 1440 1439 1438 1435 1434 1432 1432 1431 1431
1446 1445 1444 1442 1442 1441 1441 1440 1439 1437 1436 1435 1435 1435 1435 1436 1437 1437 1438 1439 1440 1441 1443 1443 1443 1442 1443 1443 1442 1441 1441 1439 1439 1434 1433 1431 1431 1429 1427 1427 1425 1424 1423
1444 1444 1443 1442 1440 1439 1438 1437 1436 1435 1435 1434 1433 1433 1432 1433 1433 1434 1435 1435 1436 1437 1438 1438 1437 1438 1439 1438 1439 1438 1438 1437 1433 1430 1428 1426 1426 1423 1421 1420 1418 1416 1415
1446 1444 1442 1441 1440 1438 1437 1436 1434 1433 1432 1432 1431 1431 1431 1431 1431 1431 1432 1432 1433 1434 1435 1435 1435 1435 1435 1434 1434 1434 1435 1433 1428 1426 1424 1422 1420 1418 1415 1412 1411 1409 1407
1446 1444 1443 1441 1440 1439 1437 1436 1434 1433 1432 1430 1430 1430 1430 1431 1431 1431 1431 1431 1431 1431 1431 1431 1431 1432 1432 1432 1431 1430 1428 1426 1423 1421 1420 1418 1416 1414 1410 1407 1404 1403 1401
1444 1443 1441 1440 1439 1438 1436 1435 1434 1433 1432 1431 1431 1430 1430 1430 1430 1429 1429 1430 1430 1429 1429 1428 1429 1428 1429 1428 1427 1426 1424 1421 1419 1417 1415 1413 1411 1408 1405 1402 1400 1397 1395
1441 1440 1439 1438 1437 1436 1435 1434 1433 1432 1431 1431 1430 1430 1430 1429 1429 1429 1429 1429 1428 1428 1428 1428 1428 1428 1427 1426 1425 1423 1422 1420 1416 1412 1409 1405 1403 1402 1400 1397 1395 1392 1390
1437 1437 1436 1435 1435 1434 1433 1433 1432 1432 1431 1431 1430 1430 1430 1430 1429 1429 1429 1428 1427 1427 1426 1426 1426 1425 1425 1424 1422 1420 1418 1415 1413 1409 1405 1402 1399 1395 1395 1392 1389 1387 1385
1435 1435 1433 1432 1432 1432 1431 1430 1430 1430 1430 1430 1429 1429 1429 1429 1429 1429 1429 1428 1427 1427 1426 1425 1424 1423 1422 1420 1418 1417 1414 1411 1408 1404 1400 1398 1396 1390 1389 1386 1383 1383 1381
1431 1431 1431 1430 1429 1429 1428 1428 1428 1428 1427 1428 1428 1428 1428 1427 1428 1427 1427 1427 1426 1426 1425 1424 1423 1422 1420 1418 1416 1414 1411 1409 1406 1403 1400 1397 1392 1390 1385 1383 1382 1378 1375